Location: Invercargill
(46.4000°S, 168.3500°E)
Time: 00:45:31
(UTC+12:00)

Explorer 7 - Visible Passes

Search period start: 20 August 2019 00:00
Search period end: 30 August 2019 00:00
Orbit: 485 x 680 km, 50.3° (Epoch: 18 August)

Date Brightness Start Highest point End Pass type
(mag) Time Alt. Az. Time Alt. Az. Time Alt. Az.
20 Aug 8.7 04:48:48 29° NE 04:48:48 29° NE 04:51:09 10° NE visible
20 Aug 8.6 06:25:10 17° WNW 06:26:33 20° NW 06:29:59 10° N visible
21 Aug 8.9 04:54:07 23° NE 04:54:07 23° NE 04:56:02 10° NE visible
21 Aug 9.1 06:30:28 12° WNW 06:31:21 13° NW 06:33:24 10° NNW visible
22 Aug 9.3 04:59:32 17° NNE 04:59:32 17° NNE 05:00:43 10° NNE visible
23 Aug 9.7 05:05:05 10° NNE 05:05:05 10° NNE 05:05:06 10° NNE visible
27 Aug 8.6 19:21:49 10° NNE 19:23:37 13° NE 19:23:37 13° NE visible
27 Aug 9.5 20:59:44 10° NW 21:00:00 12° NW 21:00:00 12° NW visible
28 Aug 8.1 19:25:35 10° N 19:28:29 21° NE 19:29:06 20° NE visible
28 Aug 9.4 21:04:43 10° WNW 21:05:28 15° WNW 21:05:28 15° WNW visible
29 Aug 7.5 19:29:57 10° NNW 19:33:22 32° NE 19:34:28 27° ENE visible
29 Aug 9.3 21:09:49 10° WNW 21:10:50 17° W 21:10:50 17° W visible
